Погода в Салоу

Испания     41°04′42″N   1°08′27″E
темп.,
°C
ветер,
м/с
пор.,
м/с
влажн.,
%
обл.,
%
осадки,
мм/ч
давл.,
гПа
погр.,
м
17 сентября, пт
пт1723:00+25зюз67666 0.1 1017340
02:00+25зсз68565 0.1 1016452
05:00+24зсз68542 0.0 1015491
08:00+23зсз56532 0.0 1015399
11:00+23з44513 0.0 1016393
14:00+24ююз55540 0.0 1014401
17:00+24ююз77640 0.0 1013379
20:00+25юз77690 0.0 1012519
18 сентября, сб
сб1823:00+25юз66710 0.0 1013598
02:00+25юз45725 0.0 1013725
05:00+25ююз457793 0.8 1012715
08:00+25юз2273100 4.3 1012133
11:00+24всв33730 1.5 1013262
14:00+25в22670 2.2 1013261
17:00+26вюв336543 0.1 1011339
20:00+26юз447221 0.1 1011223
19 сентября, вс
вс1923:00+26з576313 0.4 1013285
02:00+25зсз57560 0.4 1014505
05:00+24сз664890 0.0 1015471
08:00+22ссз13601 0.3 1017547
11:00+22ссз116067 0.1 1019579
14:00+22ю22565 0.2 1018514
17:00+23ююв65705 0.0 1017595
20:00+23ююв54680 0.0 1017939
20 сентября, пн
пн2023:00+23ю32676 0.0 1018911
02:00+23ю22672 0.0 1017861
05:00+23ю116724 0.0 1016701
08:00+23з2267100 0.0 1016595
11:00+22зсз555323 0.3 1017511
14:00+24зюз23435 0.3 1016791
17:00+24вюв5352100 0.0 1015347
20:00+23вюв4461100 0.4 1015719
21 сентября, вт
вт2123:00+22зсз6657100 1.7 1018672
02:00+20всв4570100 2.7 1018767
05:00+18сз4376100 3.7 1018505
08:00+19ссв456697 3.9 1018941
11:00+20ссв23597 0.0 10191005
14:00+20ююв0160100 0.1 1019537
17:00+20ссз1258100 0.3 1018458
20:00+21зсз3255100 0.3 1019606